Αρχική σελίδα
METAR-TAF:

METAR-TAF

Αεροδρόμια :

Gage, Οκλαχόμα, Ηνωμένες Πολιτείες Αμερικής

γεωγραφικό πλάτος: 36-17-48N, γεωγραφικό μήκος: 099-46-08W, υψόμετρο: 677 μ

Παρών καιρός

Η αναφορά έγινε 32 λεπτά πριν, στις 01:53 UTC
Άνεμος 14 kt από Β
Θερμοκρασία -2°C
Υγρασία 93%
Πίεση 1025 hPa
Ορατότητα: 4.8 χλμ
Νεφοσκεπής σε ύψος 600 πόδια
Αχλής

METAR: KGAG 180153Z AUTO 36014KT 3SM BR OVC006 M02/M03 A3026 RMK AO2 CIG 005V009 SLP263 I1000 T10221033

Χρόνος: 20:25 (02:25 UTC)


TAF: λείπει

Μετεωρολογικές αναφορές και προγνώσεις για περισσότερα από 4000 αεροδρόμια (δελτία METAR και TAF).

Οι διαθέσιμοι σταθμοί απεικονίζονται στο χάρτη με κίτρινες και κόκκινες κουκκίδες.

Μετακινήστε το ποντίκι πάνω από τις κουκκίδες για να δείτε το όνομα του σταθμού.

Στη συνέχεια, κάντε κλικ για να δείτε τις μετεωρολογικές αναφορές και τις προγνώσεις καιρού.

Για να αλλάξετε το χάρτη: κάντε κλικ στα πράσινα κουμπιά με τον μαύρο σταυρό για να ζουμάρετε, στο πράσινο κουμπί με την παύλα για να αφαιρέσετε το ζουμ ή στα πράσινα βέλη για να αντιπαραβάλλετε χάρτες.


METAR-TAF: